Location: Agendoh
(31.0664°N, 8.9343°W)
Time: 08:37:26
(UTC+00:00)

Cosmos 1656 - Pass Details

Date: 06 December 2021
Orbit: 797 x 850 km, 71.1° (Epoch: 24 January)

Event Time Altitude Azimuth Distance (km) Brightness Sun altitude
Rises 06:48:01 0° 190° (S) 3,290 6.9 -7.2°
Reaches altitude 10° 06:50:26 10° 187° (S) 2,360 6.2 -6.7°
Maximum altitude 06:55:45 64° 107° (ESE) 881 4.2 -5.6°
Drops below altitude 10° 07:01:05 10° 27° (NNE) 2,373 6.1 -4.6°
Sets 07:03:31 0° 24° (NNE) 3,309 6.8 -4.1°
